Вернуться в каталог

STARLINK-34831

АктивенСвязьVLEO
NORAD 65345·PAYLOAD·🇺🇸 United States

Запущен Aug 27, 2025 с Cape Canaveral Space Force Station

Loading…

Ближайшие Пролёты (ближайшие 24 часа)

TLE

СвежийSource: CelesTrak SupGP

Эпоха: Sep 14, 2026, 21:44 UTC

1 65345C 25189Y   26257.90604167  .00035674  00000+0  11476-2 0  2575
2 65345  53.1590  46.5392 0001116  76.4073 337.9855 15.31672725    13

Отслеживайте STARLINK-34831 в реальном времени с AllMySat

Download on the App Store